SUMZM BIEG-BGKK

Flight info

Callsign SUMZM
Flight time 2h 44m
Altitude 20000
Route FELLI1B FELLI DCT NB DCT SB DCT NASOP
Aircraft PC12/L-SDFGRWY/S

Departure

Time 2026-05-01 12:33
Airport Egilsstaðir Airport (BIEG)

Arrival

Time 2026-05-01 15:18
Airport Kulusuk Airport (BGKK)
Time Latitude Longitude Altitude Speed Heading
2026-05-01 12:07 65.27481 -14.40726 92 ft 0 kts 116°
2026-05-01 12:29 65.27480 -14.40725 85 ft 1 kts 116°
2026-05-01 12:30 65.27452 -14.40800 85 ft 4 kts 268°
2026-05-01 12:30 65.27451 -14.40853 85 ft 2 kts 269°
2026-05-01 12:30 65.27451 -14.40856 85 ft 0 kts 271°
2026-05-01 12:31 65.27451 -14.40906 85 ft 5 kts 268°
2026-05-01 12:31 65.27469 -14.41012 87 ft 9 kts 308°
2026-05-01 12:31 65.27528 -14.41057 87 ft 11 kts 21°
2026-05-01 12:31 65.27542 -14.41042 85 ft 0 kts 24°
2026-05-01 12:32 65.27555 -14.41029 88 ft 15 kts 23°
2026-05-01 12:32 65.27793 -14.40777 88 ft 52 kts
2026-05-01 12:33 65.28185 -14.40240 101 ft 74 kts
2026-05-01 12:33 65.28683 -14.39510 244 ft 93 kts 13°
2026-05-01 12:33 65.29273 -14.38647 479 ft 108 kts 21°
2026-05-01 12:33 65.29964 -14.37657 765 ft 125 kts 18°
2026-05-01 12:34 65.30813 -14.37330 1156 ft 128 kts 345°
2026-05-01 12:34 65.31638 -14.38246 1543 ft 134 kts 345°
2026-05-01 12:34 65.32581 -14.38092 1992 ft 146 kts 15°
2026-05-01 12:34 65.33551 -14.37333 2441 ft 147 kts
2026-05-01 12:35 65.34565 -14.36992 2873 ft 148 kts 351°
2026-05-01 12:35 65.35528 -14.37770 3273 ft 148 kts 329°
2026-05-01 12:35 65.36437 -14.39031 3672 ft 152 kts 329°
2026-05-01 12:35 65.37362 -14.40288 4072 ft 155 kts 330°
2026-05-01 12:36 65.38302 -14.41568 4478 ft 155 kts 329°
2026-05-01 12:36 65.39241 -14.42853 4884 ft 155 kts 329°
2026-05-01 12:36 65.40117 -14.44343 5284 ft 156 kts 313°
2026-05-01 12:36 65.40611 -14.46670 5701 ft 161 kts 288°
2026-05-01 12:37 65.40587 -14.49433 6117 ft 171 kts 269°
2026-05-01 12:37 65.40367 -14.52257 6516 ft 173 kts 267°
2026-05-01 12:37 65.40155 -14.55112 6903 ft 174 kts 266°
2026-05-01 12:37 65.39944 -14.57976 7307 ft 174 kts 266°
2026-05-01 12:38 65.39734 -14.60822 7700 ft 177 kts 266°
2026-05-01 12:38 65.39518 -14.63752 8105 ft 179 kts 267°
2026-05-01 12:38 65.39297 -14.66734 8517 ft 180 kts 266°
2026-05-01 12:38 65.39078 -14.69649 8918 ft 179 kts 265°
2026-05-01 12:39 65.38858 -14.72572 9338 ft 177 kts 265°
2026-05-01 12:39 65.38641 -14.75466 9766 ft 176 kts 264°
2026-05-01 12:39 65.38423 -14.78359 10148 ft 176 kts 264°
2026-05-01 12:39 65.38206 -14.81228 10527 ft 176 kts 264°
2026-05-01 12:40 65.37987 -14.84119 10921 ft 175 kts 263°
2026-05-01 12:40 65.37841 -14.86034 11184 ft 175 kts 264°
2026-05-01 12:40 65.37618 -14.88956 11588 ft 176 kts 263°
2026-05-01 12:40 65.37401 -14.91796 11979 ft 176 kts 263°
2026-05-01 12:41 65.37180 -14.94679 12389 ft 176 kts 263°
2026-05-01 12:41 65.36958 -14.97565 12800 ft 176 kts 263°
2026-05-01 12:41 65.36734 -15.00454 13224 ft 176 kts 263°
2026-05-01 12:41 65.36511 -15.03343 13650 ft 176 kts 263°
2026-05-01 12:42 65.36288 -15.06222 14038 ft 176 kts 263°
2026-05-01 12:42 65.36064 -15.09111 14416 ft 176 kts 263°
2026-05-01 12:42 65.35840 -15.11980 14799 ft 176 kts 263°
2026-05-01 12:42 65.35615 -15.14858 15186 ft 175 kts 263°
2026-05-01 12:43 65.35415 -15.17728 15579 ft 173 kts 269°
2026-05-01 12:43 65.35413 -15.20589 15984 ft 172 kts 271°
2026-05-01 12:43 65.35419 -15.23422 16390 ft 172 kts 271°
2026-05-01 12:43 65.35422 -15.26323 16800 ft 172 kts 271°
2026-05-01 12:44 65.35424 -15.29148 17206 ft 171 kts 271°
2026-05-01 12:44 65.35425 -15.32003 17623 ft 171 kts 271°
2026-05-01 12:44 65.35426 -15.37669 18448 ft 170 kts 271°
2026-05-01 12:45 65.35425 -15.43316 19188 ft 168 kts 271°
2026-05-01 12:45 65.35424 -15.46105 19566 ft 167 kts 271°
2026-05-01 12:45 65.35422 -15.48891 19945 ft 167 kts 271°
2026-05-01 12:46 65.35420 -15.51817 19977 ft 183 kts 271°
2026-05-01 12:46 65.35418 -15.54964 19987 ft 195 kts 271°
2026-05-01 12:46 65.35415 -15.58251 19993 ft 203 kts 271°
2026-05-01 12:46 65.35410 -15.61703 19996 ft 210 kts 271°
2026-05-01 12:47 65.35404 -15.65250 19988 ft 215 kts 271°
2026-05-01 12:47 65.35397 -15.68852 20000 ft 218 kts 271°
2026-05-01 12:47 65.35389 -15.72508 19996 ft 221 kts 271°
2026-05-01 12:47 65.35380 -15.76204 19994 ft 222 kts 271°
2026-05-01 12:48 65.35371 -15.79867 20000 ft 223 kts 271°
2026-05-01 12:48 65.35360 -15.83587 20001 ft 224 kts 271°
2026-05-01 12:48 65.35348 -15.87321 20000 ft 224 kts 271°
2026-05-01 12:48 65.35335 -15.91051 20002 ft 224 kts 271°
2026-05-01 12:49 65.35322 -15.94781 20002 ft 224 kts 271°
2026-05-01 12:49 65.35307 -15.98524 20002 ft 224 kts 271°
2026-05-01 12:49 65.35291 -16.02269 20003 ft 224 kts 271°
2026-05-01 12:49 65.35275 -16.06006 20002 ft 224 kts 271°
2026-05-01 12:50 65.35257 -16.09746 20004 ft 224 kts 271°
2026-05-01 12:50 65.35239 -16.13468 20012 ft 225 kts 271°
2026-05-01 12:50 65.35220 -16.17221 20004 ft 225 kts 271°
2026-05-01 12:50 65.35200 -16.20965 20006 ft 225 kts 271°
2026-05-01 12:51 65.35179 -16.24666 20005 ft 225 kts 271°
2026-05-01 12:51 65.35157 -16.28408 20007 ft 225 kts 271°
2026-05-01 12:51 65.35110 -16.35924 20009 ft 225 kts 271°
2026-05-01 12:52 65.35085 -16.39672 20019 ft 223 kts 271°
2026-05-01 12:52 65.35033 -16.47142 20018 ft 225 kts 271°
2026-05-01 12:52 65.35005 -16.50839 20015 ft 225 kts 271°
2026-05-01 12:53 65.34947 -16.58331 20014 ft 225 kts 271°
2026-05-01 12:53 65.34917 -16.62076 20015 ft 225 kts 271°
2026-05-01 12:53 65.34886 -16.65813 20018 ft 225 kts 272°
2026-05-01 12:54 65.34853 -16.69564 20018 ft 225 kts 272°
2026-05-01 12:54 65.34786 -16.77056 20019 ft 225 kts 272°
2026-05-01 12:54 65.34751 -16.80816 20022 ft 225 kts 272°
2026-05-01 12:55 65.34678 -16.88323 20022 ft 225 kts 272°
2026-05-01 12:55 65.34640 -16.92088 20020 ft 225 kts 272°
2026-05-01 12:55 65.34601 -16.95836 20019 ft 226 kts 272°
2026-05-01 12:56 65.34561 -16.99602 20018 ft 225 kts 272°
2026-05-01 12:56 65.34520 -17.03347 20018 ft 226 kts 272°
2026-05-01 12:56 65.34479 -17.07095 20017 ft 226 kts 272°
2026-05-01 12:56 65.34436 -17.10859 20021 ft 226 kts 272°
2026-05-01 12:57 65.34393 -17.14615 20014 ft 226 kts 272°
2026-05-01 12:57 65.34303 -17.22120 20019 ft 226 kts 272°
2026-05-01 12:57 65.34256 -17.25885 20018 ft 225 kts 272°
2026-05-01 12:58 65.34209 -17.29645 20022 ft 225 kts 272°
2026-05-01 12:58 65.34161 -17.33397 20020 ft 226 kts 272°
2026-05-01 12:58 65.34112 -17.37101 20026 ft 225 kts 272°
2026-05-01 12:59 65.34012 -17.44579 20018 ft 225 kts 272°
2026-05-01 12:59 65.33960 -17.48307 20026 ft 224 kts 272°
2026-05-01 12:59 65.33854 -17.55798 20025 ft 225 kts 272°
2026-05-01 13:00 65.33744 -17.63264 20024 ft 225 kts 272°
2026-05-01 13:00 65.33688 -17.67000 20024 ft 225 kts 272°
2026-05-01 13:01 65.33572 -17.74503 20024 ft 225 kts 272°
2026-05-01 13:01 65.33513 -17.78211 20032 ft 225 kts 272°
2026-05-01 13:01 65.33391 -17.85756 20037 ft 224 kts 272°
2026-05-01 13:02 65.33329 -17.89476 20034 ft 225 kts 272°
2026-05-01 13:07 65.36318 -18.66367 20049 ft 222 kts 285°
2026-05-01 13:07 65.36673 -18.69954 20055 ft 222 kts 285°
2026-05-01 13:07 65.37029 -18.73572 20059 ft 222 kts 285°
2026-05-01 13:08 65.37385 -18.77189 20063 ft 223 kts 285°
2026-05-01 13:08 65.37735 -18.80762 20058 ft 223 kts 285°
2026-05-01 13:08 65.38088 -18.84379 20062 ft 223 kts 285°
2026-05-01 13:08 65.38447 -18.88060 20065 ft 224 kts 285°
2026-05-01 13:09 65.38795 -18.91645 20062 ft 224 kts 285°
2026-05-01 13:09 65.39149 -18.95295 20065 ft 224 kts 285°
2026-05-01 13:09 65.39505 -18.98976 20067 ft 224 kts 285°
2026-05-01 13:09 65.39852 -19.02578 20073 ft 224 kts 285°
2026-05-01 13:10 65.40203 -19.06232 20069 ft 225 kts 285°
2026-05-01 13:10 65.40553 -19.09888 20074 ft 225 kts 285°
2026-05-01 13:10 65.40903 -19.13546 20070 ft 224 kts 285°
2026-05-01 13:10 65.41251 -19.17197 20074 ft 224 kts 285°
2026-05-01 13:11 65.41597 -19.20839 20069 ft 224 kts 285°
2026-05-01 13:11 65.41942 -19.24480 20070 ft 223 kts 285°
2026-05-01 13:11 65.42287 -19.28125 20074 ft 224 kts 285°
2026-05-01 13:11 65.42630 -19.31763 20076 ft 224 kts 285°
2026-05-01 13:12 65.42972 -19.35410 20074 ft 223 kts 285°
2026-05-01 13:12 65.43313 -19.39049 20072 ft 223 kts 285°
2026-05-01 13:12 65.43655 -19.42705 20067 ft 223 kts 285°
2026-05-01 13:12 65.43993 -19.46335 20076 ft 222 kts 285°
2026-05-01 13:13 65.44331 -19.49970 20080 ft 223 kts 285°
2026-05-01 13:13 65.44668 -19.53603 20079 ft 223 kts 285°
2026-05-01 13:13 65.45004 -19.57247 20082 ft 223 kts 285°
2026-05-01 13:13 65.45341 -19.60895 20077 ft 224 kts 285°
2026-05-01 13:14 65.45672 -19.64504 20077 ft 224 kts 285°
2026-05-01 13:14 65.46006 -19.68150 20080 ft 223 kts 285°
2026-05-01 13:14 65.46340 -19.71813 20088 ft 224 kts 285°
2026-05-01 13:14 65.46673 -19.75468 20084 ft 224 kts 285°
2026-05-01 13:15 65.47006 -19.79129 20086 ft 223 kts 285°
2026-05-01 13:15 65.47336 -19.82778 20087 ft 224 kts 285°
2026-05-01 13:15 65.47668 -19.86451 20088 ft 224 kts 285°
2026-05-01 13:15 65.47997 -19.90112 20092 ft 223 kts 285°
2026-05-01 13:16 65.48326 -19.93774 20086 ft 224 kts 285°
2026-05-01 13:16 65.48653 -19.97424 20078 ft 223 kts 285°
2026-05-01 13:16 65.48978 -20.01075 20087 ft 223 kts 285°
2026-05-01 13:17 65.49954 -20.12075 20086 ft 223 kts 285°
2026-05-01 13:17 65.50275 -20.15718 20094 ft 222 kts 285°
2026-05-01 13:18 65.50917 -20.23027 20093 ft 224 kts 285°
2026-05-01 13:18 65.51238 -20.26699 20097 ft 223 kts 285°
2026-05-01 13:18 65.51552 -20.30305 20100 ft 223 kts 285°
2026-05-01 13:18 65.51870 -20.33968 20097 ft 224 kts 285°
2026-05-01 13:19 65.52190 -20.37659 20097 ft 224 kts 285°
2026-05-01 13:19 65.52507 -20.41335 20096 ft 224 kts 285°
2026-05-01 13:19 65.53137 -20.48663 20097 ft 223 kts 285°
2026-05-01 13:20 65.53451 -20.52334 20098 ft 223 kts 285°
2026-05-01 13:20 65.53765 -20.56012 20099 ft 223 kts 285°
2026-05-01 13:20 65.54075 -20.59664 20104 ft 223 kts 285°
2026-05-01 13:21 65.54695 -20.66989 20098 ft 223 kts 285°
2026-05-01 13:21 65.55004 -20.70657 20101 ft 223 kts 285°
2026-05-01 13:21 65.55311 -20.74313 20102 ft 223 kts 285°
2026-05-01 13:21 65.55620 -20.77996 20104 ft 223 kts 285°
2026-05-01 13:22 65.55926 -20.81659 20106 ft 224 kts 285°
2026-05-01 13:22 65.56233 -20.85348 20101 ft 223 kts 285°
2026-05-01 13:22 65.56538 -20.89028 20107 ft 224 kts 285°
2026-05-01 13:22 65.56840 -20.92676 20105 ft 225 kts 285°
2026-05-01 13:23 65.57046 -20.95180 20099 ft 225 kts 285°
2026-05-01 13:23 65.57448 -21.00075 20102 ft 224 kts 285°
2026-05-01 13:23 65.57751 -21.03779 20105 ft 224 kts 285°
2026-05-01 13:23 65.58051 -21.07450 20105 ft 223 kts 285°
2026-05-01 13:24 65.58351 -21.11143 20107 ft 223 kts 285°
2026-05-01 13:24 65.58553 -21.13621 20109 ft 223 kts 285°
2026-05-01 13:24 65.58851 -21.17308 20109 ft 223 kts 285°
2026-05-01 13:25 65.59444 -21.24667 20112 ft 223 kts 284°
2026-05-01 13:25 65.59734 -21.28292 20109 ft 223 kts 285°
2026-05-01 13:25 65.60029 -21.31980 20109 ft 223 kts 284°
2026-05-01 13:25 65.60321 -21.35644 20110 ft 223 kts 284°
2026-05-01 13:26 65.60614 -21.39336 20108 ft 223 kts 285°
2026-05-01 13:26 65.60905 -21.43020 20111 ft 222 kts 284°
2026-05-01 13:26 65.61194 -21.46684 20107 ft 223 kts 284°
2026-05-01 13:26 65.61484 -21.50374 20112 ft 223 kts 284°
2026-05-01 13:27 65.61774 -21.54070 20108 ft 223 kts 284°
2026-05-01 13:27 65.62062 -21.57757 20112 ft 223 kts 284°
2026-05-01 13:27 65.62635 -21.65134 20110 ft 223 kts 284°
2026-05-01 13:28 65.63205 -21.72516 20106 ft 224 kts 284°
2026-05-01 13:28 65.63489 -21.76221 20110 ft 223 kts 284°
2026-05-01 13:29 65.64053 -21.83607 20112 ft 222 kts 284°
2026-05-01 13:29 65.64612 -21.90969 20110 ft 222 kts 284°
2026-05-01 13:30 65.65721 -22.05743 20107 ft 223 kts 284°
2026-05-01 13:31 65.66271 -22.13141 20112 ft 222 kts 284°
2026-05-01 13:31 65.67082 -22.24139 20113 ft 222 kts 284°
2026-05-01 13:32 65.67621 -22.31527 20111 ft 222 kts 284°
2026-05-01 13:33 65.68425 -22.42626 20111 ft 223 kts 284°
2026-05-01 13:33 65.68959 -22.50059 20114 ft 224 kts 284°
2026-05-01 13:34 65.69483 -22.57430 20114 ft 222 kts 284°
2026-05-01 13:34 65.70007 -22.64824 20112 ft 222 kts 284°
2026-05-01 13:35 65.70524 -22.72186 20110 ft 222 kts 284°
2026-05-01 13:35 65.70782 -22.75883 20114 ft 222 kts 284°
2026-05-01 13:35 65.71295 -22.83277 20114 ft 222 kts 284°
2026-05-01 13:36 65.71552 -22.86988 20114 ft 222 kts 284°
2026-05-01 13:36 65.71807 -22.90705 20114 ft 222 kts 284°
2026-05-01 13:36 65.72312 -22.98070 20115 ft 222 kts 284°
2026-05-01 13:37 65.72565 -23.01789 20119 ft 222 kts 284°
2026-05-01 13:37 65.72816 -23.05493 20118 ft 222 kts 284°
2026-05-01 13:37 65.73068 -23.09223 20121 ft 223 kts 284°
2026-05-01 13:37 65.73318 -23.12943 20118 ft 223 kts 284°
2026-05-01 13:38 65.73816 -23.20391 20119 ft 224 kts 284°
2026-05-01 13:38 65.74065 -23.24134 20120 ft 223 kts 284°
2026-05-01 13:38 65.74313 -23.27870 20120 ft 223 kts 284°
2026-05-01 13:39 65.74558 -23.31589 20118 ft 223 kts 284°
2026-05-01 13:39 65.74800 -23.35264 20119 ft 223 kts 284°
2026-05-01 13:39 65.75043 -23.38979 20120 ft 222 kts 284°
2026-05-01 13:39 65.75285 -23.42694 20120 ft 222 kts 283°
2026-05-01 13:40 65.75527 -23.46406 20121 ft 222 kts 283°
2026-05-01 13:40 65.75768 -23.50132 20119 ft 222 kts 283°
2026-05-01 13:40 65.76008 -23.53856 20119 ft 222 kts 283°
2026-05-01 13:40 65.76247 -23.57575 20120 ft 222 kts 283°
2026-05-01 13:41 65.76484 -23.61292 20121 ft 222 kts 283°
2026-05-01 13:41 65.76721 -23.65010 20118 ft 222 kts 283°
2026-05-01 13:41 65.76957 -23.68722 20121 ft 222 kts 283°
2026-05-01 13:41 65.77132 -23.71501 20120 ft 222 kts 283°
2026-05-01 13:42 65.77367 -23.75228 20121 ft 222 kts 283°
2026-05-01 13:42 65.77600 -23.78944 20120 ft 222 kts 283°
2026-05-01 13:42 65.77831 -23.82628 20123 ft 222 kts 283°
2026-05-01 13:42 65.78063 -23.86354 20121 ft 222 kts 283°
2026-05-01 13:43 65.78294 -23.90082 20123 ft 222 kts 283°
2026-05-01 13:43 65.78524 -23.93810 20121 ft 222 kts 283°
2026-05-01 13:43 65.78754 -23.97548 20124 ft 223 kts 283°
2026-05-01 13:43 65.78885 -24.01307 20123 ft 224 kts 277°
2026-05-01 13:44 65.78926 -24.05109 20126 ft 225 kts 277°
2026-05-01 13:44 65.78977 -24.08907 20129 ft 225 kts 278°
2026-05-01 13:44 65.79029 -24.12727 20127 ft 226 kts 277°
2026-05-01 13:44 65.79079 -24.16569 20130 ft 226 kts 277°
2026-05-01 13:45 65.79126 -24.20386 20126 ft 226 kts 277°
2026-05-01 13:45 65.79172 -24.24165 20128 ft 225 kts 277°
2026-05-01 13:45 65.79218 -24.28021 20127 ft 225 kts 277°
2026-05-01 13:45 65.79263 -24.31845 20132 ft 225 kts 277°
2026-05-01 13:46 65.79307 -24.35600 20129 ft 225 kts 277°
2026-05-01 13:46 65.79350 -24.39414 20131 ft 225 kts 277°
2026-05-01 13:46 65.79392 -24.43228 20133 ft 225 kts 277°
2026-05-01 13:46 65.79433 -24.47043 20132 ft 225 kts 277°
2026-05-01 13:47 65.79473 -24.50867 20133 ft 225 kts 277°
2026-05-01 13:47 65.79512 -24.54669 20129 ft 225 kts 277°
2026-05-01 13:47 65.79550 -24.58480 20132 ft 225 kts 277°
2026-05-01 13:47 65.79588 -24.62303 20133 ft 225 kts 277°
2026-05-01 13:48 65.79624 -24.66107 20131 ft 225 kts 277°
2026-05-01 13:48 65.79660 -24.69931 20132 ft 225 kts 277°
2026-05-01 13:48 65.79694 -24.73752 20132 ft 225 kts 277°
2026-05-01 13:48 65.79727 -24.77520 20129 ft 225 kts 277°
2026-05-01 13:49 65.79760 -24.81376 20135 ft 225 kts 277°
2026-05-01 13:49 65.79792 -24.85158 20135 ft 225 kts 277°
2026-05-01 13:49 65.79822 -24.88969 20137 ft 225 kts 277°
2026-05-01 13:49 65.79852 -24.92832 20134 ft 225 kts 277°
2026-05-01 13:50 65.79881 -24.96612 20132 ft 225 kts 277°
2026-05-01 13:50 65.79909 -25.00434 20133 ft 225 kts 277°
2026-05-01 13:50 65.79936 -25.04255 20135 ft 225 kts 277°
2026-05-01 13:50 65.79962 -25.08081 20135 ft 225 kts 277°
2026-05-01 13:51 65.79987 -25.11891 20135 ft 225 kts 277°
2026-05-01 13:51 65.80011 -25.15705 20136 ft 225 kts 277°
2026-05-01 13:51 65.80034 -25.19536 20133 ft 225 kts 277°
2026-05-01 13:51 65.80056 -25.23364 20134 ft 225 kts 277°
2026-05-01 13:52 65.80077 -25.27169 20138 ft 225 kts 277°
2026-05-01 13:52 65.80097 -25.30997 20137 ft 225 kts 277°
2026-05-01 13:52 65.80117 -25.34813 20139 ft 225 kts 277°
2026-05-01 13:52 65.80135 -25.38641 20138 ft 225 kts 277°
2026-05-01 13:53 65.80152 -25.42465 20137 ft 225 kts 277°
2026-05-01 13:53 65.80184 -25.50099 20136 ft 226 kts 277°
2026-05-01 13:53 65.80199 -25.53921 20138 ft 226 kts 277°
2026-05-01 13:54 65.80212 -25.57756 20136 ft 226 kts 277°
2026-05-01 13:54 65.80225 -25.61584 20139 ft 226 kts 277°
2026-05-01 13:54 65.80237 -25.65399 20137 ft 226 kts 277°
2026-05-01 13:54 65.80247 -25.69176 20135 ft 226 kts 277°
2026-05-01 13:55 65.80257 -25.73002 20136 ft 226 kts 277°
2026-05-01 13:55 65.80266 -25.76841 20136 ft 226 kts 277°
2026-05-01 13:55 65.80274 -25.80668 20137 ft 226 kts 277°
2026-05-01 13:55 65.80281 -25.84500 20137 ft 226 kts 277°
2026-05-01 13:56 65.80287 -25.88320 20139 ft 226 kts 276°
2026-05-01 13:56 65.80292 -25.92157 20140 ft 226 kts 276°
2026-05-01 13:56 65.80296 -25.95978 20139 ft 226 kts 276°
2026-05-01 13:56 65.80299 -25.99818 20140 ft 226 kts 276°
2026-05-01 13:57 65.80301 -26.03641 20136 ft 226 kts 276°
2026-05-01 13:57 65.80302 -26.06176 20142 ft 226 kts 276°
2026-05-01 13:57 65.80302 -26.11307 20140 ft 226 kts 276°
2026-05-01 13:57 65.80302 -26.15148 20144 ft 226 kts 276°
2026-05-01 13:58 65.80300 -26.18991 20140 ft 226 kts 276°
2026-05-01 13:58 65.80297 -26.22833 20139 ft 226 kts 276°
2026-05-01 13:58 65.80293 -26.26663 20136 ft 226 kts 276°
2026-05-01 13:58 65.80289 -26.30504 20141 ft 226 kts 276°
2026-05-01 13:59 65.80283 -26.34341 20140 ft 227 kts 276°
2026-05-01 13:59 65.80277 -26.38148 20141 ft 226 kts 276°
2026-05-01 13:59 65.80269 -26.41972 20141 ft 226 kts 276°
2026-05-01 13:59 65.80261 -26.45815 20144 ft 226 kts 276°
2026-05-01 14:00 65.80252 -26.49651 20138 ft 226 kts 276°
2026-05-01 14:00 65.80241 -26.53494 20143 ft 227 kts 276°
2026-05-01 14:00 65.80230 -26.57346 20139 ft 227 kts 276°
2026-05-01 14:00 65.80218 -26.61196 20139 ft 227 kts 276°
2026-05-01 14:01 65.80204 -26.65050 20136 ft 227 kts 276°
2026-05-01 14:01 65.80190 -26.68892 20146 ft 227 kts 276°
2026-05-01 14:01 65.80175 -26.72739 20146 ft 227 kts 276°
2026-05-01 14:01 65.80159 -26.76578 20144 ft 227 kts 276°
2026-05-01 14:02 65.80142 -26.80419 20147 ft 227 kts 276°
2026-05-01 14:02 65.80124 -26.84270 20146 ft 227 kts 276°
2026-05-01 14:02 65.80105 -26.88122 20143 ft 227 kts 276°
2026-05-01 14:02 65.80085 -26.91977 20144 ft 227 kts 276°
2026-05-01 14:03 65.80064 -26.95795 20146 ft 228 kts 276°
2026-05-01 14:03 65.80042 -26.99650 20143 ft 228 kts 275°
2026-05-01 14:03 65.80019 -27.03542 20139 ft 228 kts 275°
2026-05-01 14:03 65.79995 -27.07394 20143 ft 228 kts 275°
2026-05-01 14:04 65.79970 -27.11210 20147 ft 228 kts 275°
2026-05-01 14:04 65.79944 -27.15112 20145 ft 228 kts 275°
2026-05-01 14:04 65.79917 -27.18937 20145 ft 228 kts 275°
2026-05-01 14:04 65.79899 -27.21530 20146 ft 228 kts 275°
2026-05-01 14:05 65.79861 -27.26656 20143 ft 228 kts 275°
2026-05-01 14:05 65.79831 -27.30516 20144 ft 228 kts 275°
2026-05-01 14:05 65.79800 -27.34369 20140 ft 228 kts 275°
2026-05-01 14:05 65.79768 -27.38231 20145 ft 228 kts 275°
2026-05-01 14:06 65.79735 -27.42120 20142 ft 228 kts 275°
2026-05-01 14:06 65.79702 -27.45981 20137 ft 228 kts 275°
2026-05-01 14:06 65.79667 -27.49858 20145 ft 228 kts 275°
2026-05-01 14:06 65.79631 -27.53710 20140 ft 228 kts 275°
2026-05-01 14:07 65.79594 -27.57595 20142 ft 228 kts 275°
2026-05-01 14:07 65.79557 -27.61421 20141 ft 229 kts 275°
2026-05-01 14:07 65.79518 -27.65287 20144 ft 229 kts 275°
2026-05-01 14:08 65.79438 -27.73036 20145 ft 229 kts 275°
2026-05-01 14:08 65.79396 -27.76927 20140 ft 229 kts 275°
2026-05-01 14:08 65.79353 -27.80807 20145 ft 229 kts 274°
2026-05-01 14:08 65.79310 -27.84684 20140 ft 229 kts 274°
2026-05-01 14:09 65.79265 -27.88565 20132 ft 229 kts 274°
2026-05-01 14:09 65.79219 -27.92446 20146 ft 229 kts 274°
2026-05-01 14:09 65.79173 -27.96329 20140 ft 229 kts 274°
2026-05-01 14:09 65.79126 -28.00163 20132 ft 229 kts 274°
2026-05-01 14:10 65.79076 -28.04104 20144 ft 229 kts 274°
2026-05-01 14:10 65.79027 -28.07917 20143 ft 229 kts 274°
2026-05-01 14:10 65.78977 -28.11797 20142 ft 229 kts 274°
2026-05-01 14:10 65.78925 -28.15725 20142 ft 229 kts 274°
2026-05-01 14:11 65.78873 -28.19572 20141 ft 229 kts 274°
2026-05-01 14:11 65.78764 -28.27346 20140 ft 229 kts 274°
2026-05-01 14:11 65.78709 -28.31220 20143 ft 229 kts 274°
2026-05-01 14:12 65.78652 -28.35107 20143 ft 229 kts 274°
2026-05-01 14:12 65.78595 -28.38995 20142 ft 230 kts 274°
2026-05-01 14:12 65.78556 -28.41566 20143 ft 230 kts 274°
2026-05-01 14:12 65.78497 -28.45463 20143 ft 230 kts 274°
2026-05-01 14:13 65.78417 -28.50610 20142 ft 230 kts 274°
2026-05-01 14:13 65.78375 -28.53224 20141 ft 230 kts 274°
2026-05-01 14:13 65.78313 -28.57125 20142 ft 230 kts 273°
2026-05-01 14:13 65.78229 -28.62268 20141 ft 230 kts 273°
2026-05-01 14:14 65.78186 -28.64896 20144 ft 230 kts 273°
2026-05-01 14:14 65.78120 -28.68787 20139 ft 230 kts 273°
2026-05-01 14:14 65.78054 -28.72678 20145 ft 230 kts 273°
2026-05-01 14:14 65.77988 -28.76518 20144 ft 230 kts 273°
2026-05-01 14:15 65.77920 -28.80417 20143 ft 230 kts 273°
2026-05-01 14:15 65.77849 -28.84356 20140 ft 230 kts 273°
2026-05-01 14:15 65.77780 -28.88204 20140 ft 230 kts 273°
2026-05-01 14:15 65.77709 -28.92105 20145 ft 230 kts 273°
2026-05-01 14:16 65.77636 -28.95998 20142 ft 230 kts 273°
2026-05-01 14:16 65.77563 -28.99891 20142 ft 230 kts 273°
2026-05-01 14:16 65.77489 -29.03794 20144 ft 230 kts 273°
2026-05-01 14:16 65.77413 -29.07694 20143 ft 230 kts 272°
2026-05-01 14:17 65.77337 -29.11603 20143 ft 230 kts 272°
2026-05-01 14:17 65.77260 -29.15496 20141 ft 231 kts 272°
2026-05-01 14:17 65.77182 -29.19393 20142 ft 231 kts 272°
2026-05-01 14:17 65.77103 -29.23244 20143 ft 231 kts 272°
2026-05-01 14:18 65.77023 -29.27161 20145 ft 231 kts 272°
2026-05-01 14:18 65.76942 -29.31047 20143 ft 231 kts 272°
2026-05-01 14:18 65.76859 -29.34957 20142 ft 231 kts 272°
2026-05-01 14:18 65.76803 -29.37592 20142 ft 231 kts 272°
2026-05-01 14:19 65.76691 -29.42765 20143 ft 231 kts 272°
2026-05-01 14:19 65.76606 -29.46671 20144 ft 231 kts 272°
2026-05-01 14:19 65.76519 -29.50577 20143 ft 231 kts 272°
2026-05-01 14:19 65.76432 -29.54492 20144 ft 231 kts 272°
2026-05-01 14:20 65.76343 -29.58414 20144 ft 231 kts 272°
2026-05-01 14:20 65.76163 -29.66231 20144 ft 232 kts 272°
2026-05-01 14:20 65.76071 -29.70138 20143 ft 232 kts 272°
2026-05-01 14:21 65.75978 -29.74060 20143 ft 232 kts 272°
2026-05-01 14:21 65.75885 -29.77967 20143 ft 232 kts 272°
2026-05-01 14:21 65.75790 -29.81882 20142 ft 232 kts 271°
2026-05-01 14:22 65.75599 -29.89658 20141 ft 232 kts 271°
2026-05-01 14:22 65.75500 -29.93617 20145 ft 232 kts 271°
2026-05-01 14:22 65.75403 -29.97470 20143 ft 232 kts 271°
2026-05-01 14:22 65.75303 -30.01399 20141 ft 232 kts 271°
2026-05-01 14:23 65.75203 -30.05301 20140 ft 232 kts 271°
2026-05-01 14:23 65.75101 -30.09231 20143 ft 232 kts 271°
2026-05-01 14:23 65.74998 -30.13144 20144 ft 232 kts 271°
2026-05-01 14:23 65.74894 -30.17061 20145 ft 232 kts 271°
2026-05-01 14:24 65.74789 -30.20975 20145 ft 232 kts 271°
2026-05-01 14:24 65.74683 -30.24896 20146 ft 232 kts 271°
2026-05-01 14:24 65.74578 -30.28771 20145 ft 232 kts 271°
2026-05-01 14:24 65.74470 -30.32678 20144 ft 232 kts 271°
2026-05-01 14:25 65.74361 -30.36594 20147 ft 232 kts 271°
2026-05-01 14:25 65.74252 -30.40497 20148 ft 232 kts 271°
2026-05-01 14:25 65.74141 -30.44418 20146 ft 232 kts 271°
2026-05-01 14:25 65.74029 -30.48331 20143 ft 232 kts 271°
2026-05-01 14:26 65.73916 -30.52244 20144 ft 232 kts 271°
2026-05-01 14:26 65.73687 -30.60087 20144 ft 232 kts 270°
2026-05-01 14:26 65.73571 -30.64007 20141 ft 232 kts 270°
2026-05-01 14:27 65.73453 -30.67938 20143 ft 232 kts 270°
2026-05-01 14:27 65.73336 -30.71847 20142 ft 232 kts 270°
2026-05-01 14:27 65.73217 -30.75768 20143 ft 232 kts 270°
2026-05-01 14:28 65.72977 -30.83548 20143 ft 232 kts 270°
2026-05-01 14:28 65.72853 -30.87522 20141 ft 232 kts 270°
2026-05-01 14:28 65.72731 -30.91431 20141 ft 232 kts 270°
2026-05-01 14:28 65.72608 -30.95303 20141 ft 232 kts 270°
2026-05-01 14:29 65.72483 -30.99212 20140 ft 232 kts 270°
2026-05-01 14:29 65.72357 -31.03130 20137 ft 232 kts 270°
2026-05-01 14:30 65.71973 -31.14877 20139 ft 232 kts 270°
2026-05-01 14:30 65.71843 -31.18787 20143 ft 233 kts 270°
2026-05-01 14:30 65.71711 -31.22710 20137 ft 233 kts 270°
2026-05-01 14:31 65.71446 -31.30538 20140 ft 233 kts 270°
2026-05-01 14:31 65.71312 -31.34462 20139 ft 233 kts 270°
2026-05-01 14:31 65.71177 -31.38368 20139 ft 233 kts 270°
2026-05-01 14:31 65.71041 -31.42287 20138 ft 233 kts 270°
2026-05-01 14:32 65.70904 -31.46201 20138 ft 232 kts 270°
2026-05-01 14:32 65.70828 -31.50062 20138 ft 232 kts 271°
2026-05-01 14:32 65.70739 -31.53974 20138 ft 232 kts 271°
2026-05-01 14:32 65.70642 -31.57893 20139 ft 232 kts 271°
2026-05-01 14:33 65.70551 -31.61806 20141 ft 232 kts 271°
2026-05-01 14:33 65.70462 -31.65719 20141 ft 232 kts 271°
2026-05-01 14:33 65.70370 -31.69633 20141 ft 232 kts 271°
2026-05-01 14:33 65.70277 -31.73551 20139 ft 233 kts 271°
2026-05-01 14:34 65.70182 -31.77475 20140 ft 233 kts 271°
2026-05-01 14:34 65.70087 -31.81402 20141 ft 232 kts 271°
2026-05-01 14:34 65.69991 -31.85310 20141 ft 232 kts 270°
2026-05-01 14:34 65.69894 -31.89225 20140 ft 232 kts 270°
2026-05-01 14:35 65.69796 -31.93145 20138 ft 232 kts 270°
2026-05-01 14:35 65.69697 -31.97053 20139 ft 232 kts 270°
2026-05-01 14:35 65.69596 -32.00987 20142 ft 233 kts 270°
2026-05-01 14:35 65.69496 -32.04849 20140 ft 233 kts 270°
2026-05-01 14:36 65.69392 -32.08830 20138 ft 233 kts 270°
2026-05-01 14:36 65.69290 -32.12707 20140 ft 233 kts 270°
2026-05-01 14:36 65.69185 -32.16644 20144 ft 233 kts 270°
2026-05-01 14:36 65.69080 -32.20579 20141 ft 233 kts 270°
2026-05-01 14:37 65.68973 -32.24507 20142 ft 233 kts 270°
2026-05-01 14:37 65.68865 -32.28439 20142 ft 233 kts 270°
2026-05-01 14:37 65.68757 -32.32353 20145 ft 233 kts 270°
2026-05-01 14:37 65.68647 -32.36280 20142 ft 233 kts 270°
2026-05-01 14:38 65.68537 -32.40206 20141 ft 233 kts 270°
2026-05-01 14:38 65.68426 -32.44084 20140 ft 233 kts 270°
2026-05-01 14:38 65.68313 -32.48052 20142 ft 233 kts 270°
2026-05-01 14:38 65.68199 -32.51982 20138 ft 233 kts 270°
2026-05-01 14:39 65.68084 -32.55908 20140 ft 233 kts 270°
2026-05-01 14:39 65.67970 -32.59777 20140 ft 233 kts 270°
2026-05-01 14:39 65.67853 -32.63703 20140 ft 233 kts 270°
2026-05-01 14:39 65.67736 -32.67620 20140 ft 233 kts 270°
2026-05-01 14:40 65.67617 -32.71546 20139 ft 233 kts 270°
2026-05-01 14:40 65.67497 -32.75477 20139 ft 233 kts 270°
2026-05-01 14:40 65.67377 -32.79386 20139 ft 233 kts 269°
2026-05-01 14:40 65.67255 -32.83318 20139 ft 233 kts 269°
2026-05-01 14:41 65.67132 -32.87244 20144 ft 233 kts 269°
2026-05-01 14:41 65.67008 -32.91181 20143 ft 233 kts 269°
2026-05-01 14:41 65.66882 -32.95118 20142 ft 233 kts 269°
2026-05-01 14:41 65.66758 -32.98988 20141 ft 233 kts 269°
2026-05-01 14:42 65.66631 -33.02914 20144 ft 233 kts 269°
2026-05-01 14:42 65.66503 -33.06840 20143 ft 233 kts 269°
2026-05-01 14:42 65.66374 -33.10766 20143 ft 233 kts 269°
2026-05-01 14:42 65.66245 -33.14678 20144 ft 233 kts 269°
2026-05-01 14:43 65.66114 -33.18603 20140 ft 233 kts 269°
2026-05-01 14:43 65.65982 -33.22527 20141 ft 233 kts 269°
2026-05-01 14:43 65.65849 -33.26442 20139 ft 233 kts 269°
2026-05-01 14:43 65.65714 -33.30379 20139 ft 233 kts 269°
2026-05-01 14:44 65.65580 -33.34299 20140 ft 233 kts 269°
2026-05-01 14:44 65.65307 -33.42127 20140 ft 233 kts 269°
2026-05-01 14:44 65.65169 -33.46049 20140 ft 233 kts 269°
2026-05-01 14:45 65.65030 -33.49988 20140 ft 233 kts 269°
2026-05-01 14:45 65.64749 -33.57813 20138 ft 233 kts 269°
2026-05-01 14:45 65.64607 -33.61734 20139 ft 233 kts 269°
2026-05-01 14:46 65.64466 -33.65606 20141 ft 233 kts 269°
2026-05-01 14:46 65.64177 -33.73436 20136 ft 233 kts 269°
2026-05-01 14:46 65.64031 -33.77356 20138 ft 234 kts 269°
2026-05-01 14:47 65.63884 -33.81268 20139 ft 234 kts 269°
2026-05-01 14:47 65.63735 -33.85198 20140 ft 234 kts 268°
2026-05-01 14:47 65.63586 -33.89119 20141 ft 234 kts 268°
2026-05-01 14:48 65.63285 -33.96947 20138 ft 233 kts 268°
2026-05-01 14:48 65.63132 -34.00873 20136 ft 234 kts 268°
2026-05-01 14:48 65.62825 -34.08706 20139 ft 233 kts 268°
2026-05-01 14:49 65.62516 -34.16466 20137 ft 233 kts 268°
2026-05-01 14:49 65.62202 -34.24284 20138 ft 233 kts 268°
2026-05-01 14:50 65.61989 -34.29505 20136 ft 233 kts 268°
2026-05-01 14:50 65.61561 -34.39879 20137 ft 233 kts 268°
2026-05-01 14:51 65.61399 -34.43773 20133 ft 233 kts 268°
2026-05-01 14:51 65.61070 -34.51570 20136 ft 233 kts 268°
2026-05-01 14:52 65.60739 -34.59348 20134 ft 233 kts 268°
2026-05-01 14:52 65.60572 -34.63216 20136 ft 233 kts 268°
2026-05-01 14:52 65.60234 -34.70999 20134 ft 233 kts 268°
2026-05-01 14:53 65.60063 -34.74903 20135 ft 232 kts 268°
2026-05-01 14:53 65.59892 -34.78783 20137 ft 232 kts 268°
2026-05-01 14:53 65.59721 -34.82652 20132 ft 232 kts 268°
2026-05-01 14:53 65.59547 -34.86549 20136 ft 232 kts 268°
2026-05-01 14:54 65.59373 -34.90438 20133 ft 232 kts 268°
2026-05-01 14:54 65.59198 -34.94306 20134 ft 232 kts 267°
2026-05-01 14:54 65.59021 -34.98202 20134 ft 232 kts 267°
2026-05-01 14:54 65.58844 -35.02080 20132 ft 232 kts 267°
2026-05-01 14:55 65.58666 -35.05965 20136 ft 232 kts 267°
2026-05-01 14:55 65.58487 -35.09838 20134 ft 232 kts 267°
2026-05-01 14:55 65.58310 -35.13667 20133 ft 232 kts 267°
2026-05-01 14:55 65.58128 -35.17556 20141 ft 232 kts 267°
2026-05-01 14:56 65.57947 -35.21425 20139 ft 232 kts 267°
2026-05-01 14:56 65.57763 -35.25305 20133 ft 232 kts 267°
2026-05-01 14:56 65.57579 -35.29193 20137 ft 233 kts 267°
2026-05-01 14:56 65.57393 -35.33087 20134 ft 233 kts 267°
2026-05-01 14:57 65.57207 -35.36953 20134 ft 233 kts 267°
2026-05-01 14:57 65.56832 -35.44721 20134 ft 233 kts 267°
2026-05-01 14:57 65.56642 -35.48607 20133 ft 233 kts 267°
2026-05-01 14:58 65.56452 -35.52480 20128 ft 232 kts 267°
2026-05-01 14:58 65.56261 -35.56361 20131 ft 232 kts 267°
2026-05-01 14:58 65.56070 -35.60224 20136 ft 232 kts 267°
2026-05-01 14:58 65.55878 -35.64061 20131 ft 232 kts 267°
2026-05-01 14:59 65.55686 -35.67930 19873 ft 232 kts 267°
2026-05-01 14:59 65.55492 -35.71803 19545 ft 232 kts 266°
2026-05-01 14:59 65.55296 -35.75690 19222 ft 233 kts 266°
2026-05-01 14:59 65.55099 -35.79563 18905 ft 233 kts 266°
2026-05-01 15:00 65.54699 -35.87362 18246 ft 234 kts 265°
2026-05-01 15:00 65.54565 -35.89944 18001 ft 233 kts 265°
2026-05-01 15:00 65.54365 -35.93816 17650 ft 233 kts 265°
2026-05-01 15:01 65.54162 -35.97711 17289 ft 233 kts 265°
2026-05-01 15:01 65.53892 -36.02866 16817 ft 233 kts 265°
2026-05-01 15:01 65.53688 -36.06733 16473 ft 233 kts 265°
2026-05-01 15:01 65.53482 -36.10619 16132 ft 233 kts 265°
2026-05-01 15:02 65.53342 -36.13242 15900 ft 233 kts 264°
2026-05-01 15:02 65.53205 -36.15810 15683 ft 233 kts 264°
2026-05-01 15:02 65.52930 -36.20938 15240 ft 233 kts 264°
2026-05-01 15:02 65.52721 -36.24809 14915 ft 233 kts 264°
2026-05-01 15:03 65.52510 -36.28702 14588 ft 233 kts 264°
2026-05-01 15:03 65.52300 -36.32570 14269 ft 233 kts 264°
2026-05-01 15:03 65.52087 -36.36461 13942 ft 233 kts 263°
2026-05-01 15:03 65.51874 -36.40331 13590 ft 233 kts 263°
2026-05-01 15:04 65.51660 -36.44211 13234 ft 233 kts 263°
2026-05-01 15:04 65.51444 -36.48099 12880 ft 233 kts 263°
2026-05-01 15:04 65.51229 -36.51953 12532 ft 233 kts 263°
2026-05-01 15:04 65.51010 -36.55846 12182 ft 233 kts 263°
2026-05-01 15:05 65.50796 -36.59650 11846 ft 232 kts 263°
2026-05-01 15:05 65.50575 -36.63556 11507 ft 232 kts 263°
2026-05-01 15:05 65.50358 -36.67369 11178 ft 232 kts 263°
2026-05-01 15:05 65.50138 -36.71221 10846 ft 233 kts 263°
2026-05-01 15:06 65.49917 -36.75081 10523 ft 234 kts 262°
2026-05-01 15:06 65.49693 -36.78966 10196 ft 234 kts 262°
2026-05-01 15:06 65.49466 -36.82875 9858 ft 235 kts 262°
2026-05-01 15:06 65.49240 -36.86765 9504 ft 235 kts 262°
2026-05-01 15:07 65.49012 -36.90667 9155 ft 235 kts 262°
2026-05-01 15:07 65.48784 -36.94552 8801 ft 235 kts 262°
2026-05-01 15:07 65.48552 -36.98475 8461 ft 236 kts 262°
2026-05-01 15:07 65.48319 -37.02406 8120 ft 237 kts 262°
2026-05-01 15:08 65.48086 -37.06325 7786 ft 237 kts 262°
2026-05-01 15:08 65.47851 -37.10260 7451 ft 237 kts 262°
2026-05-01 15:08 65.47615 -37.14187 7118 ft 237 kts 262°
2026-05-01 15:08 65.47379 -37.18107 6796 ft 236 kts 262°
2026-05-01 15:09 65.47142 -37.22012 6462 ft 235 kts 262°
2026-05-01 15:09 65.46908 -37.25862 6121 ft 231 kts 262°
2026-05-01 15:09 65.46675 -37.29681 5810 ft 227 kts 262°
2026-05-01 15:09 65.46449 -37.33369 5520 ft 221 kts 262°
2026-05-01 15:10 65.46228 -37.36957 5211 ft 218 kts 262°
2026-05-01 15:10 65.45799 -37.43983 4569 ft 207 kts 264°
2026-05-01 15:10 65.45912 -37.47437 4238 ft 204 kts 285°
2026-05-01 15:11 65.46486 -37.50396 3977 ft 198 kts 304°
2026-05-01 15:11 65.48721 -37.54274 3569 ft 198 kts 336°
2026-05-01 15:11 65.49965 -37.55542 3537 ft 190 kts 336°
2026-05-01 15:12 65.51261 -37.56215 3312 ft 195 kts 358°
2026-05-01 15:12 65.53534 -37.54048 2779 ft 165 kts 40°
2026-05-01 15:12 65.54192 -37.51958 2695 ft 148 kts 59°
2026-05-01 15:13 65.55233 -37.46221 2696 ft 124 kts 64°
2026-05-01 15:14 65.55922 -37.42349 2562 ft 134 kts 64°
2026-05-01 15:14 65.56161 -37.40178 2292 ft 130 kts 83°
2026-05-01 15:14 65.56321 -37.36228 1749 ft 106 kts 82°
2026-05-01 15:15 65.56479 -37.32697 1208 ft 113 kts 82°
2026-05-01 15:15 65.56641 -37.29067 1189 ft 108 kts 83°
2026-05-01 15:16 65.56798 -37.25468 1193 ft 109 kts 83°
2026-05-01 15:16 65.56957 -37.21807 1194 ft 109 kts 83°
2026-05-01 15:17 65.57126 -37.18156 1113 ft 107 kts 82°
2026-05-01 15:18 65.57338 -37.13144 123 ft 78 kts 95°
2026-05-01 15:18 65.57349 -37.12129 114 ft 35 kts 73°
2026-05-01 15:19 65.57380 -37.11893 113 ft 11 kts 260°
2026-05-01 15:19 65.57355 -37.12296 118 ft 12 kts 262°
2026-05-01 15:19 65.57343 -37.12533 116 ft 15 kts 263°
2026-05-01 15:20 65.57322 -37.13015 119 ft 16 kts 262°
2026-05-01 15:20 65.57308 -37.13240 124 ft 14 kts 266°
2026-05-01 15:20 65.57324 -37.13443 122 ft 11 kts 308°
2026-05-01 15:21 65.57359 -37.13477 123 ft 6 kts 358°
2026-05-01 15:21 65.57361 -37.13477 123 ft 0 kts 357°
2026-05-01 15:22 65.57393 -37.13470 123 ft 3 kts 14°
2026-05-01 15:22 65.57397 -37.13466 122 ft 0 kts 26°
2026-05-01 15:22 65.57426 -37.13424 123 ft 1 kts 359°
2026-05-01 15:23 65.57428 -37.13425 123 ft 0 kts 352°
2026-05-01 15:23 65.57429 -37.13425 123 ft 0 kts 352°
2026-05-01 15:23 65.57432 -37.13425 123 ft 0 kts
2026-05-01 15:23 65.57428 -37.13426 123 ft 2 kts 16°
2026-05-01 15:24 65.57426 -37.13426 123 ft 0 kts 45°
2026-05-01 15:24 65.57431 -37.13400 123 ft 0 kts 79°